Location: G�nzburg
(48.4565°N, 10.3217°E)
Time: 20:31:56
(UTC+01:00)

ISS - Pass Details

Date: 08 January 2018
Orbit: 402 x 407 km, 51.6° (Epoch: 20 January)

Event Time Altitude Azimuth Distance (km) Brightness Sun altitude
Exits shadow 05:06:25 14° 67° (ENE) 1,264 -0.6 -29.4°
Drops below altitude 10° 05:06:57 10° 70° (ENE) 1,469 -0.2 -29.3°
Sets 05:09:05 0° 76° (ENE) 2,331 1.1 -28.9°
